JZA7 CYUL-CYOW

Flight info

Callsign JZA7
Flight time N/A
Altitude 16000
Route KESKA DCT ALSET RIVER4
Aircraft DH8D/M-SDE2E3FGRY/H

Departure

Time 2026-04-30 20:11
Airport Montreal / Pierre Elliott Trudeau International Airport (CYUL)

Arrival

Time N/A
Airport Ottawa Macdonald-Cartier International Airport (CYOW)
Time Latitude Longitude Altitude Speed Heading
2026-04-30 19:09 45.46061 -73.74783 111 ft 0 kts 178°
2026-04-30 19:54 45.46060 -73.74783 111 ft 0 kts 178°
2026-04-30 19:55 45.46073 -73.74784 111 ft 2 kts 178°
2026-04-30 19:56 45.46088 -73.74784 111 ft 2 kts 178°
2026-04-30 19:56 45.46102 -73.74785 111 ft 2 kts 178°
2026-04-30 19:56 45.46114 -73.74786 111 ft 0 kts 178°
2026-04-30 19:56 45.46127 -73.74788 111 ft 2 kts 160°
2026-04-30 19:57 45.46140 -73.74798 111 ft 2 kts 139°
2026-04-30 19:57 45.46149 -73.74814 111 ft 2 kts 117°
2026-04-30 19:57 45.46154 -73.74834 111 ft 2 kts 97°
2026-04-30 19:57 45.46154 -73.74847 111 ft 0 kts 87°
2026-04-30 20:01 45.46158 -73.74721 111 ft 10 kts 87°
2026-04-30 20:01 45.46160 -73.74629 111 ft 7 kts 88°
2026-04-30 20:01 45.46140 -73.74554 111 ft 10 kts 127°
2026-04-30 20:02 45.46033 -73.74387 111 ft 12 kts 138°
2026-04-30 20:02 45.45967 -73.74318 110 ft 9 kts 125°
2026-04-30 20:03 45.46041 -73.74170 111 ft 9 kts 38°
2026-04-30 20:03 45.46090 -73.74110 111 ft 9 kts 41°
2026-04-30 20:03 45.46137 -73.74052 111 ft 9 kts 40°
2026-04-30 20:03 45.46184 -73.73994 111 ft 8 kts 40°
2026-04-30 20:04 45.46231 -73.73930 111 ft 10 kts 43°
2026-04-30 20:04 45.46286 -73.73859 111 ft 10 kts 41°
2026-04-30 20:04 45.46340 -73.73793 111 ft 10 kts 39°
2026-04-30 20:05 45.46436 -73.73658 112 ft 9 kts 43°
2026-04-30 20:05 45.46482 -73.73597 112 ft 9 kts 41°
2026-04-30 20:05 45.46572 -73.73476 113 ft 8 kts 44°
2026-04-30 20:06 45.46616 -73.73417 113 ft 8 kts 42°
2026-04-30 20:06 45.46659 -73.73362 113 ft 8 kts 40°
2026-04-30 20:06 45.46701 -73.73307 114 ft 7 kts 44°
2026-04-30 20:06 45.46740 -73.73254 114 ft 7 kts 42°
2026-04-30 20:07 45.46780 -73.73202 114 ft 7 kts 41°
2026-04-30 20:07 45.46819 -73.73155 115 ft 7 kts 39°
2026-04-30 20:07 45.46934 -73.73000 116 ft 17 kts 41°
2026-04-30 20:08 45.47033 -73.72879 118 ft 18 kts 42°
2026-04-30 20:08 45.47126 -73.72762 120 ft 16 kts 41°
2026-04-30 20:08 45.47205 -73.72659 121 ft 15 kts 44°
2026-04-30 20:08 45.47285 -73.72541 123 ft 19 kts 45°
2026-04-30 20:09 45.47378 -73.72415 125 ft 17 kts 41°
2026-04-30 20:09 45.47464 -73.72314 127 ft 14 kts 44°
2026-04-30 20:09 45.47444 -73.72182 128 ft 9 kts 187°
2026-04-30 20:10 45.47286 -73.72229 127 ft 22 kts 189°
2026-04-30 20:10 45.47118 -73.72366 124 ft 36 kts 223°
2026-04-30 20:10 45.46896 -73.72661 119 ft 55 kts 223°
2026-04-30 20:11 45.45491 -73.74495 722 ft 174 kts 226°
2026-04-30 20:11 45.44632 -73.75597 1873 ft 173 kts 228°
2026-04-30 20:11 45.43780 -73.76688 3090 ft 167 kts 227°
2026-04-30 20:12 45.43571 -73.79610 4935 ft 176 kts 298°
2026-04-30 20:12 45.44175 -73.81117 5982 ft 182 kts 303°
2026-04-30 20:12 45.45020 -73.82420 7006 ft 182 kts 314°
2026-04-30 20:13 45.45924 -73.83689 7533 ft 189 kts 313°
2026-04-30 20:13 45.46870 -73.85014 8018 ft 195 kts 313°
2026-04-30 20:13 45.47838 -73.86367 8587 ft 198 kts 313°
2026-04-30 20:13 45.48831 -73.87745 9158 ft 201 kts 313°
2026-04-30 20:14 45.49836 -73.89131 9724 ft 205 kts 313°
2026-04-30 20:14 45.50828 -73.90564 10276 ft 207 kts 307°
2026-04-30 20:14 45.51680 -73.92247 10821 ft 211 kts 302°
2026-04-30 20:14 45.52523 -73.93948 11368 ft 215 kts 302°
2026-04-30 20:15 45.53396 -73.95701 11954 ft 217 kts 302°
2026-04-30 20:15 45.54272 -73.97450 12521 ft 219 kts 302°
2026-04-30 20:15 45.55164 -73.99216 13067 ft 222 kts 302°
2026-04-30 20:15 45.56067 -74.00990 13590 ft 225 kts 302°
2026-04-30 20:16 45.56992 -74.02793 14102 ft 227 kts 302°
2026-04-30 20:16 45.57920 -74.04617 14576 ft 229 kts 299°
2026-04-30 20:16 45.58700 -74.06595 15040 ft 230 kts 292°
2026-04-30 20:16 45.59415 -74.08643 15512 ft 232 kts 291°
2026-04-30 20:17 45.60143 -74.10741 15832 ft 242 kts 291°
2026-04-30 20:17 45.60914 -74.12969 15949 ft 260 kts 292°
2026-04-30 20:17 45.61507 -74.15440 15977 ft 272 kts 273°
2026-04-30 20:17 45.61536 -74.18210 16007 ft 287 kts 265°
2026-04-30 20:18 45.61483 -74.21129 16011 ft 303 kts 265°
2026-04-30 20:18 45.61429 -74.24232 16014 ft 316 kts 265°
2026-04-30 20:18 45.61378 -74.27422 16008 ft 327 kts 266°
2026-04-30 20:18 45.61330 -74.30684 15996 ft 334 kts 266°
2026-04-30 20:19 45.61285 -74.33966 15988 ft 333 kts 266°
2026-04-30 20:19 45.61240 -74.37262 15980 ft 330 kts 266°
2026-04-30 20:19 45.61201 -74.40138 15983 ft 328 kts 266°
2026-04-30 20:19 45.61167 -74.42589 15987 ft 326 kts 266°